**Search for your results by entering your last name OR bib number OR search by age group to compare your stats with others
Individual Search
 
Bib:
Last Name:
All Participants Search
 
Top Ten Women
PlaceNameTimePace
1.Holly Knight1:20:086:07/M
2.Alicia Heyne1:28:346:46/M
3.Angela Yochum1:31:547:01/M
4.Sheri Kiser1:32:307:04/M
5.Laura Chisman1:34:457:14/M
6.Jaime Alegnani1:34:517:14/M
7.Jo Ann Davis1:35:427:18/M
8.Andrea Doogs1:36:117:21/M
9.Lynn Riedling1:36:237:21/M
10.Danielle Meriwether1:36:327:22/M
Top Ten Men
PlaceNameTimePace
1.Michael Eaton1:09:525:20/M
2.Luke Lovelace1:10:075:21/M
3.Mike Hermanson1:15:285:46/M
4.Mark Hamilton1:15:495:47/M
5.Christan Stewart1:16:105:49/M
6.Mike Deren1:17:095:53/M
7.Daryl Parks1:17:545:57/M
8.Joseph Van Zee1:18:005:57/M
9.Braden Robbins1:18:215:59/M
10.Matthew Tabor1:18:285:59/M
Contact us for results help

Gallery of Events

Contact Us

Address:
3019 Alvin Devane Blvd.
Building 1, Suite 160
Austin, Texas 78741

Phone:
(512) 386 - 7966

Email:
info@cadencesports.com